User: anonymous   Login
Location: NJAA Observatory
(40.6819°N, 74.8979°W)
Time: 23:13:58
(UTC-05:00)
Language:

Cosmos 1461 - Orbit

View from above orbital plane
View from above orbital plane
View from above satellite
View from above satellite

Ground track
Ground track

The orbit data is extracted from the following two-line orbital elements,

1 14064U 83044A   15027.52195184  .00002112  00000-0  21200-3 0  7637
2 14064 065.0046 097.2353 0102366 020.8316 339.6922 14.90287253593265
Epoch (UTC): 27 January 2015 12:31:36
Eccentricity: 0.0102366
inclination: 65.0046°
perigee height: 525 km
apogee height: 668 km
right ascension of ascending node: 97.2353°
argument of perigee: 20.8316°
revolutions per day: 14.90287253
mean anomaly at epoch: 339.6922°
orbit number at epoch: 59326

The dashed part of the orbit path shows where the satellite is in the earth's shadow,  

DLR